• en France
  • Liste des pays
  • À 7 jours
  • Température de l'eau
  • Carte satellitaire
  • Carte météo
  • Widgets météo
  • user-avatar
    Se connecter

    Météo par heure à Luganka

    Ce jour, 22 Octobre, Lundi

    Heure Température Précipitation Vent Pression Humidité
    00:00 +4°C° 0 mm 3 m/s 754 mmHg 79%
    01:00 +4°C° 0 mm 3 m/s 754 mmHg 81%
    02:00 +4°C° 0 mm 2 m/s 754 mmHg 84%
    03:00 +4°C° 0 mm 2 m/s 754 mmHg 84%
    04:00 +3°C° 0 mm 3 m/s 754 mmHg 84%
    05:00 +3°C° 0 mm 3 m/s 754 mmHg 85%
    06:00 +3°C° 0 mm 3 m/s 754 mmHg 82%
    07:00 +4°C° 0 mm 3 m/s 754 mmHg 80%
    08:00 +5°C° 0 mm 3 m/s 754 mmHg 77%
    09:00 +7°C° 0 mm 3 m/s 753 mmHg 72%
    10:00 +8°C° 0 mm 3 m/s 753 mmHg 68%
    11:00 +10°C° 0 mm 3 m/s 753 mmHg 63%
    12:00 +10°C° 0 mm 2 m/s 753 mmHg 63%
    13:00 +10°C° 0 mm 2 m/s 752 mmHg 63%
    14:00 +10°C° 0 mm 2 m/s 752 mmHg 63%
    15:00 +10°C° 0 mm 2 m/s 751 mmHg 66%
    16:00 +10°C° 0 mm 1 m/s 751 mmHg 69%
    17:00 +10°C° 0 mm 1 m/s 751 mmHg 72%
    18:00 +9°C° 0 mm 1 m/s 750 mmHg 74%
    19:00 +8°C° 0 mm 0 m/s 750 mmHg 75%
    20:00 +8°C° 0 mm 0 m/s 750 mmHg 77%
    21:00 +9°C° 0.1 mm 1 m/s 749 mmHg 77%
    22:00 +9°C° 0.1 mm 1 m/s 749 mmHg 77%
    23:00 +9°C° 0.1 mm 1 m/s 748 mmHg 77%

    Demain, 23 Octobre, Mardi

    Heure Température Précipitation Vent Pression Humidité
    00:00 +8°C° 0.2 mm 2 m/s 748 mmHg 76%
    01:00 +8°C° 0.2 mm 2 m/s 747 mmHg 76%
    02:00 +7°C° 0.2 mm 2 m/s 747 mmHg 76%
    03:00 +7°C° 0.1 mm 2 m/s 746 mmHg 76%
    04:00 +6°C° 0.1 mm 2 m/s 746 mmHg 76%
    05:00 +6°C° 0.1 mm 2 m/s 745 mmHg 76%
    06:00 +5°C° 0 mm 3 m/s 745 mmHg 73%
    07:00 +5°C° 0 mm 3 m/s 745 mmHg 71%
    08:00 +5°C° 0 mm 3 m/s 745 mmHg 68%
    09:00 +6°C° 0 mm 4 m/s 744 mmHg 65%
    10:00 +7°C° 0 mm 4 m/s 744 mmHg 61%
    11:00 +8°C° 0 mm 4 m/s 743 mmHg 57%
    12:00 +9°C° 0 mm 5 m/s 743 mmHg 57%
    13:00 +9°C° 0 mm 5 m/s 742 mmHg 57%
    14:00 +9°C° 0 mm 5 m/s 742 mmHg 56%
    15:00 +8°C° 0 mm 5 m/s 741 mmHg 60%
    16:00 +8°C° 0 mm 4 m/s 741 mmHg 64%
    17:00 +8°C° 0 mm 3 m/s 741 mmHg 67%
    18:00 +7°C° 0 mm 4 m/s 740 mmHg 70%
    19:00 +7°C° 0 mm 4 m/s 740 mmHg 72%
    20:00 +6°C° 0 mm 4 m/s 739 mmHg 75%
    21:00 +6°C° 0 mm 4 m/s 739 mmHg 76%
    22:00 +6°C° 0 mm 4 m/s 738 mmHg 78%
    23:00 +6°C° 0 mm 4 m/s 738 mmHg 79%

    Après-demain, 24 Octobre, Mercredi

    Heure Température Précipitation Vent Pression Humidité
    00:00 +6°C° 0.1 mm 4 m/s 737 mmHg 78%
    01:00 +6°C° 0.1 mm 4 m/s 736 mmHg 77%
    02:00 +6°C° 0.1 mm 5 m/s 735 mmHg 77%
    03:00 +6°C° 0.1 mm 4 m/s 735 mmHg 77%
    04:00 +5°C° 0.1 mm 4 m/s 734 mmHg 77%
    05:00 +5°C° 0.1 mm 4 m/s 733 mmHg 77%
    06:00 +5°C° 0.1 mm 5 m/s 732 mmHg 76%
    07:00 +6°C° 0.1 mm 5 m/s 732 mmHg 76%
    08:00 +5°C° 0.1 mm 6 m/s 731 mmHg 75%
    09:00 +5°C° 0.3 mm 6 m/s 730 mmHg 76%
    10:00 +6°C° 0.3 mm 7 m/s 730 mmHg 77%
    11:00 +6°C° 0.3 mm 7 m/s 729 mmHg 79%
    12:00 +6°C° 0.1 mm 7 m/s 729 mmHg 78%
    13:00 +8°C° 0.1 mm 6 m/s 728 mmHg 77%
    14:00 +8°C° 0.1 mm 6 m/s 728 mmHg 76%
    15:00 +8°C° 0.1 mm 5 m/s 728 mmHg 78%
    16:00 +8°C° 0.1 mm 5 m/s 728 mmHg 81%
    17:00 +7°C° 0.1 mm 4 m/s 728 mmHg 83%
    18:00 +7°C° 0.4 mm 4 m/s 728 mmHg 84%
    19:00 +7°C° 0.4 mm 4 m/s 728 mmHg 86%
    20:00 +7°C° 0.4 mm 4 m/s 727 mmHg 88%
    21:00 +7°C° 0.3 mm 4 m/s 727 mmHg 89%
    22:00 +7°C° 0.3 mm 4 m/s 726 mmHg 89%
    23:00 +7°C° 0.3 mm 4 m/s 726 mmHg 90%

    25 Octobre, Jeudi

    Heure Température Précipitation Vent Pression Humidité
    00:00 +7°C° 0.3 mm 4 m/s 725 mmHg 90%
    01:00 +8°C° 0.3 mm 5 m/s 725 mmHg 90%
    02:00 +8°C° 0.3 mm 5 m/s 724 mmHg 91%
    03:00 +8°C° 1.2 mm 5 m/s 723 mmHg 91%
    04:00 +8°C° 1.2 mm 6 m/s 723 mmHg 92%
    05:00 +7°C° 1.2 mm 6 m/s 722 mmHg 93%
    06:00 +6°C° 1.8 mm 7 m/s 721 mmHg 89%
    07:00 +6°C° 1.8 mm 7 m/s 721 mmHg 85%
    08:00 +5°C° 1.8 mm 8 m/s 720 mmHg 81%
    09:00 +5°C° 0.2 mm 8 m/s 720 mmHg 80%
    10:00 +5°C° 0.2 mm 8 m/s 720 mmHg 79%
    11:00 +5°C° 0.2 mm 8 m/s 720 mmHg 78%
    12:00 +5°C° 0.4 mm 8 m/s 721 mmHg 79%
    13:00 +5°C° 0.4 mm 9 m/s 721 mmHg 80%
    14:00 +5°C° 0.4 mm 9 m/s 721 mmHg 80%
    15:00 +5°C° 0.4 mm 9 m/s 722 mmHg 80%
    16:00 +3°C° 0.4 mm 10 m/s 723 mmHg 79%
    17:00 +3°C° 0.4 mm 10 m/s 724 mmHg 78%
    18:00 +3°C° 0.3 mm 10 m/s 725 mmHg 77%
    19:00 +2°C° 0.3 mm 10 m/s 726 mmHg 76%
    20:00 +2°C° 0.3 mm 9 m/s 727 mmHg 75%
    21:00 +2°C° 0 mm 9 m/s 727 mmHg 75%
    22:00 +1°C° 0 mm 8 m/s 728 mmHg 76%
    23:00 +1°C° 0 mm 8 m/s 729 mmHg 76%

    26 Octobre, Vendredi

    Heure Température Précipitation Vent Pression Humidité
    00:00 0°C° 0 mm 7 m/s 729 mmHg 77%
    01:00 0°C° 0 mm 7 m/s 730 mmHg 79%
    02:00 0°C° 0 mm 7 m/s 730 mmHg 80%
    03:00 0°C° 0 mm 7 m/s 731 mmHg 80%
    04:00 0°C° 0 mm 7 m/s 731 mmHg 79%
    05:00 0°C° 0 mm 7 m/s 732 mmHg 79%
    06:00 0°C° 0 mm 7 m/s 733 mmHg 78%
    07:00 0°C° 0 mm 7 m/s 733 mmHg 77%
    08:00 0°C° 0 mm 7 m/s 734 mmHg 76%
    09:00 0°C° 0 mm 7 m/s 735 mmHg 74%
    10:00 +2°C° 0 mm 6 m/s 735 mmHg 72%
    11:00 +2°C° 0 mm 6 m/s 736 mmHg 69%
    12:00 +2°C° 0 mm 6 m/s 737 mmHg 69%
    13:00 +3°C° 0 mm 6 m/s 737 mmHg 68%
    14:00 +3°C° 0 mm 6 m/s 738 mmHg 68%
    15:00 +3°C° 0 mm 6 m/s 738 mmHg 70%
    16:00 +2°C° 0 mm 6 m/s 739 mmHg 72%
    17:00 +2°C° 0 mm 6 m/s 740 mmHg 74%
    18:00 +2°C° 0 mm 5 m/s 741 mmHg 75%
    19:00 +2°C° 0 mm 5 m/s 741 mmHg 75%
    20:00 +2°C° 0 mm 5 m/s 742 mmHg 75%
    21:00 +3°C° 0 mm 4 m/s 743 mmHg 77%
    22:00 +1°C° 0 mm 4 m/s 743 mmHg 79%
    23:00 +1°C° 0 mm 4 m/s 744 mmHg 80%

    27 Octobre, Samedi

    Heure Température Précipitation Vent Pression Humidité
    00:00 +1°C° 0 mm 4 m/s 744 mmHg 82%
    01:00 0°C° 0 mm 4 m/s 745 mmHg 85%
    02:00 0°C° 0 mm 4 m/s 745 mmHg 87%
    03:00 -1°C° 0 mm 4 m/s 746 mmHg 88%
    04:00 0°C° 0 mm 3 m/s 747 mmHg 89%
    05:00 0°C° 0 mm 3 m/s 747 mmHg 90%
    06:00 -1°C° 0 mm 4 m/s 747 mmHg 87%
    07:00 0°C° 0 mm 4 m/s 748 mmHg 85%
    08:00 +1°C° 0 mm 4 m/s 748 mmHg 82%
    09:00 +2°C° 0 mm 5 m/s 748 mmHg 76%
    10:00 +3°C° 0 mm 5 m/s 748 mmHg 71%
    11:00 +6°C° 0 mm 5 m/s 748 mmHg 66%
    12:00 +5°C° 0 mm 6 m/s 748 mmHg 65%
    13:00 +7°C° 0 mm 6 m/s 748 mmHg 65%
    14:00 +7°C° 0 mm 6 m/s 748 mmHg 64%
    15:00 +7°C° 0 mm 5 m/s 747 mmHg 68%
    16:00 +6°C° 0 mm 5 m/s 747 mmHg 71%
    17:00 +5°C° 0 mm 4 m/s 747 mmHg 74%
    18:00 +5°C° 0 mm 4 m/s 747 mmHg 76%
    19:00 +5°C° 0 mm 4 m/s 747 mmHg 78%
    20:00 +5°C° 0 mm 4 m/s 747 mmHg 80%
    21:00 +6°C° 0 mm 4 m/s 747 mmHg 83%
    22:00 +6°C° 0 mm 5 m/s 747 mmHg 86%
    23:00 +6°C° 0 mm 5 m/s 747 mmHg 89%

    28 Octobre, Dimanche

    Heure Température Précipitation Vent Pression Humidité
    00:00 +7°C° 0.3 mm 5 m/s 747 mmHg 90%
    01:00 +8°C° 0.3 mm 5 m/s 747 mmHg 92%
    02:00 +9°C° 0.3 mm 5 m/s 747 mmHg 94%
    03:00 +9°C° 0.4 mm 6 m/s 747 mmHg 94%
    04:00 +9°C° 0.4 mm 6 m/s 747 mmHg 93%
    05:00 +10°C° 0.4 mm 6 m/s 746 mmHg 93%
    06:00 +10°C° 0 mm 6 m/s 747 mmHg 92%
    07:00 +10°C° 0 mm 7 m/s 747 mmHg 90%
    08:00 +10°C° 0 mm 7 m/s 747 mmHg 89%
    09:00 +10°C° 0 mm 7 m/s 747 mmHg 85%
    10:00 +11°C° 0 mm 7 m/s 747 mmHg 82%
    11:00 +11°C° 0 mm 8 m/s 747 mmHg 79%
    12:00 +12°C° 0 mm 8 m/s 747 mmHg 75%
    13:00 +13°C° 0 mm 8 m/s 746 mmHg 71%
    14:00 +15°C° 0 mm 7 m/s 746 mmHg 67%
    15:00 +14°C° 0 mm 7 m/s 746 mmHg 68%
    16:00 +14°C° 0 mm 7 m/s 746 mmHg 70%
    17:00 +13°C° 0 mm 6 m/s 746 mmHg 71%
    18:00 +13°C° 0 mm 6 m/s 746 mmHg 70%
    19:00 +13°C° 0 mm 6 m/s 746 mmHg 68%
    20:00 +12°C° 0 mm 7 m/s 746 mmHg 67%
    21:00 +13°C° 0 mm 6 m/s 746 mmHg 68%
    22:00 +13°C° 0 mm 6 m/s 746 mmHg 69%
    23:00 +13°C° 0 mm 6 m/s 747 mmHg 70%
    Voir plus